Vidalia, GA

9:21 PM EDT on April 23, 2018 (GMT -0400)
Vidalia Municipal

Weather History for KVDI - November, 2013

Change the Weather History Date:

Tuesday, November 5, 2013

  Actual Average (KSBO) Record (KSBO)
Temperature  
Mean Temperature 56 °F -  
Max Temperature 69 °F 70 °F 77 °F (2014)
Min Temperature 44 °F 46 °F 42 °F (2013)
Degree Days  
Heating Degree Days 8    
Growing Degree Days 6 (Base 50)    
Moisture  
Dew Point 45 °F    
Average Humidity 66    
Maximum Humidity 94    
Minimum Humidity 43    
Precipitation  
Precipitation 0.00 in - - ()
Sea Level Pressure  
Sea Level Pressure 30.35 in    
Wind  
Wind Speed 9 mph (NE)    
Max Wind Speed 14 mph    
Max Gust Speed 21 mph    
Visibility 10 miles    
Events      
Averages and records for this station are not official NWS values.
T = Trace of Precipitation, MM = Missing Value Source: NWS Daily Summary

Daily Weather History Graph

Daily Weather History Graph

Search for Another Location

Airport or City:

Astronomy

Nov. 05, 2013 Rise Set
Actual Time 6:49 AM EST 5:35 PM EST
Civil Twilight 6:24 AM EST 6:01 PM EST
Nautical Twilight 5:55 AM EST 6:30 PM EST
Astronomical Twilight 5:26 AM EST 6:59 PM EST
Moon 8:58 AM EST (11/5) 7:40 PM EST (11/5)
Length of Visible Light 11h 36m
Length of Day
10h 45m
Waxing Crescent, 6% of the Moon is Illuminated
Nov 5
Waxing Crescent
Nov 10
First Quarter
Nov 17
Full
Nov 25
Last Quarter
Dec 2
New

Hourly Weather History & Observations

Time (EST) Temp. Windchill Dew Point Humidity Pressure Visibility Wind Dir Wind Speed Gust Speed Precip Events Conditions
12:15 AM 50.0 °F - 37.4 °F 62% 30.39 in 10.0 mi NE 8.1 mph - N/A   Scattered Clouds
12:35 AM 50.0 °F - 37.4 °F 62% 30.39 in 10.0 mi NE 9.2 mph - N/A   Clear
12:55 AM 50.0 °F - 39.2 °F 66% 30.38 in 10.0 mi NE 6.9 mph - N/A   Clear
1:15 AM 50.0 °F - 39.2 °F 66% 30.38 in 10.0 mi NE 6.9 mph - N/A   Clear
1:35 AM 48.2 °F - 39.2 °F 71% 30.38 in 10.0 mi NE 6.9 mph - N/A   Clear
1:55 AM 48.2 °F - 41.0 °F 76% 30.37 in 10.0 mi NE 8.1 mph - N/A   Clear
2:15 AM 48.2 °F - 39.2 °F 71% 30.37 in 10.0 mi NE 9.2 mph - N/A   Clear
2:35 AM 48.2 °F - 39.2 °F 71% 30.37 in 10.0 mi NE 9.2 mph - N/A   Clear
2:55 AM 48.2 °F - 39.2 °F 71% 30.36 in 10.0 mi NNE 9.2 mph 17.3 mph N/A   Scattered Clouds
3:15 AM 48.2 °F - 39.2 °F 71% 30.35 in 10.0 mi NNE 9.2 mph - N/A   Scattered Clouds
3:35 AM 46.4 °F 41.5 °F 39.2 °F 76% 30.36 in 10.0 mi NE 10.4 mph - N/A   Clear
3:55 AM 46.4 °F 42.9 °F 39.2 °F 76% 30.37 in 10.0 mi NE 6.9 mph - N/A   Clear
4:15 AM 46.4 °F 42.4 °F 39.2 °F 76% 30.37 in 10.0 mi NNE 8.1 mph - N/A   Clear
4:35 AM 46.4 °F 41.5 °F 37.4 °F 71% 30.36 in 10.0 mi NNE 10.4 mph - N/A   Scattered Clouds
4:55 AM 46.4 °F 41.5 °F 37.4 °F 71% 30.36 in 10.0 mi NNE 10.4 mph 16.1 mph N/A   Mostly Cloudy
5:15 AM 46.4 °F 41.9 °F 37.4 °F 71% 30.37 in 10.0 mi NE 9.2 mph - N/A   Mostly Cloudy
5:35 AM 46.4 °F 41.9 °F 37.4 °F 71% 30.38 in 10.0 mi NE 9.2 mph - N/A   Mostly Cloudy
5:55 AM 46.4 °F 42.4 °F 37.4 °F 71% 30.38 in 10.0 mi NNE 8.1 mph - N/A   Scattered Clouds
6:15 AM 44.6 °F 38.8 °F 39.2 °F 81% 30.38 in 10.0 mi NE 11.5 mph - N/A   Scattered Clouds
6:35 AM 44.6 °F 39.2 °F 39.2 °F 81% 30.39 in 10.0 mi NE 10.4 mph - N/A   Mostly Cloudy
6:55 AM 44.6 °F 39.7 °F 39.2 °F 81% 30.39 in 10.0 mi NNE 9.2 mph - N/A   Scattered Clouds
7:15 AM 44.6 °F 40.7 °F 39.2 °F 81% 30.40 in 10.0 mi NNE 6.9 mph - N/A   Scattered Clouds
7:35 AM 46.4 °F 41.9 °F 39.2 °F 76% 30.40 in 10.0 mi NNE 9.2 mph - N/A   Scattered Clouds
7:55 AM 46.4 °F 41.1 °F 39.2 °F 76% 30.40 in 10.0 mi NNE 11.5 mph 19.6 mph N/A   Scattered Clouds
8:15 AM 48.2 °F - 41.0 °F 76% 30.40 in 10.0 mi NNE 10.4 mph - N/A   Clear
8:35 AM 50.0 °F - 41.0 °F 71% 30.40 in 10.0 mi NNE 10.4 mph 19.6 mph N/A   Clear
8:55 AM 51.8 °F - 41.0 °F 67% 30.41 in 10.0 mi NE 9.2 mph - N/A   Clear
9:15 AM 51.8 °F - 41.0 °F 67% 30.41 in 10.0 mi NE 13.8 mph 20.7 mph N/A   Clear
9:35 AM 53.6 °F - 41.0 °F 62% 30.41 in 10.0 mi NNE 9.2 mph - N/A   Clear
9:55 AM 55.4 °F - 42.8 °F 63% 30.41 in 10.0 mi NE 9.2 mph - N/A   Clear
10:15 AM 57.2 °F - 42.8 °F 59% 30.41 in 10.0 mi NNE 11.5 mph - N/A   Clear
10:35 AM 59.0 °F - 42.8 °F 55% 30.40 in 10.0 mi NNE 10.4 mph - N/A   Clear
10:55 AM 60.8 °F - 42.8 °F 52% 30.40 in 10.0 mi NE 11.5 mph 16.1 mph N/A   Clear
11:15 AM 60.8 °F - 42.8 °F 52% 30.39 in 10.0 mi NE 10.4 mph - N/A   Clear
11:35 AM 62.6 °F - 42.8 °F 48% 30.39 in 10.0 mi NNE 8.1 mph - N/A   Scattered Clouds
11:55 AM 62.6 °F - 42.8 °F 48% 30.38 in 10.0 mi NE 8.1 mph - N/A   Mostly Cloudy
12:15 PM 64.4 °F - 44.6 °F 49% 30.38 in 10.0 mi NNE 8.1 mph - N/A   Overcast
12:35 PM 62.6 °F - 44.6 °F 52% 30.36 in 10.0 mi NE 9.2 mph - N/A   Overcast
12:55 PM 64.4 °F - 44.6 °F 49% 30.35 in 10.0 mi NNE 6.9 mph - N/A   Overcast
1:15 PM 64.4 °F - 46.4 °F 52% 30.34 in 10.0 mi ENE 6.9 mph - N/A   Overcast
1:35 PM 68.0 °F - 46.4 °F 46% 30.33 in 10.0 mi NNE 8.1 mph - N/A   Mostly Cloudy
1:55 PM 69.8 °F - 46.4 °F 43% 30.33 in 10.0 mi NNE 10.4 mph 18.4 mph N/A   Overcast
2:15 PM 69.8 °F - 46.4 °F 43% 30.32 in 10.0 mi NNE 8.1 mph - N/A   Mostly Cloudy
2:35 PM 69.8 °F - 46.4 °F 43% 30.32 in 10.0 mi NE 11.5 mph - N/A   Mostly Cloudy
2:55 PM 69.8 °F - 46.4 °F 43% 30.32 in 10.0 mi NE 13.8 mph - N/A   Mostly Cloudy
3:15 PM 69.8 °F - 46.4 °F 43% 30.31 in 10.0 mi NE 10.4 mph - N/A   Overcast
3:35 PM 68.0 °F - 46.4 °F 46% 30.31 in 10.0 mi NNE 12.7 mph 16.1 mph N/A   Overcast
3:55 PM 68.0 °F - 46.4 °F 46% 30.32 in 10.0 mi NE 8.1 mph - N/A   Overcast
4:15 PM 68.0 °F - 46.4 °F 46% 30.31 in 10.0 mi NE 11.5 mph - N/A   Overcast
4:35 PM 68.0 °F - 48.2 °F 49% 30.31 in 10.0 mi NE 11.5 mph 18.4 mph N/A   Overcast
4:55 PM 68.0 °F - 50.0 °F 52% 30.31 in 10.0 mi NE 8.1 mph - N/A   Overcast
5:15 PM 68.0 °F - 50.0 °F 52% 30.31 in 10.0 mi NE 6.9 mph - N/A   Overcast
5:35 PM 66.2 °F - 50.0 °F 56% 30.31 in 10.0 mi NE 5.8 mph - N/A   Overcast
5:55 PM 64.4 °F - 50.0 °F 59% 30.31 in 10.0 mi NNE 5.8 mph - N/A   Overcast
6:15 PM 64.4 °F - 50.0 °F 59% 30.31 in 10.0 mi NE 5.8 mph - N/A   Overcast
6:35 PM 64.4 °F - 50.0 °F 59% 30.32 in 10.0 mi NE 9.2 mph - N/A   Overcast
6:55 PM 64.4 °F - 50.0 °F 59% 30.32 in 10.0 mi NE 9.2 mph - N/A   Overcast
7:15 PM 64.4 °F - 50.0 °F 59% 30.32 in 10.0 mi NE 10.4 mph - N/A   Overcast
7:35 PM 64.4 °F - 51.8 °F 64% 30.32 in 10.0 mi ENE 13.8 mph - N/A   Overcast
7:55 PM 62.6 °F - 53.6 °F 72% 30.32 in 10.0 mi ENE 12.7 mph 19.6 mph N/A   Overcast
8:15 PM 62.6 °F - 53.6 °F 72% 30.32 in 10.0 mi ENE 12.7 mph 18.4 mph N/A   Overcast
8:35 PM 62.6 °F - 55.4 °F 77% 30.32 in 10.0 mi ENE 11.5 mph - N/A   Overcast
8:55 PM 60.8 °F - 57.2 °F 88% 30.32 in 7.0 mi NE 10.4 mph - N/A   Overcast
9:15 PM 60.8 °F - 57.2 °F 88% 30.33 in 10.0 mi ENE 10.4 mph - N/A   Overcast
9:35 PM 59.0 °F - 57.2 °F 94% 30.32 in 10.0 mi NE 8.1 mph - N/A   Light Drizzle
9:55 PM 59.0 °F - 57.2 °F 94% 30.32 in 10.0 mi ENE 9.2 mph - N/A   Overcast
10:15 PM 59.0 °F - 57.2 °F 94% 30.32 in 10.0 mi ENE 11.5 mph - N/A   Overcast
10:35 PM 59.0 °F - 57.2 °F 94% 30.32 in 10.0 mi ENE 10.4 mph - N/A   Overcast
10:55 PM 59.0 °F - 55.4 °F 88% 30.31 in 10.0 mi ENE 10.4 mph 18.4 mph N/A   Overcast
11:15 PM 59.0 °F - 55.4 °F 88% 30.31 in 10.0 mi ENE 9.2 mph 18.4 mph N/A   Overcast
11:35 PM 59.0 °F - 55.4 °F 88% 30.30 in 10.0 mi ENE 10.4 mph - N/A   Overcast
11:55 PM 59.0 °F - 55.4 °F 88% 30.30 in 10.0 mi NE 11.5 mph 17.3 mph N/A   Overcast